This is the latest recevied weather packets stored in our database for station/object AC4AG. If no packets are shown the sender has not sent any weather packets the latest 10 day(s).
| Time | Temp. | Humidity | Pressure | Rain* | Wind** | Luminosity | Snow |
|---|---|---|---|---|---|---|---|
| 1777602436 | 8.89° C | 70% | 1015.4 hPa | 0 mm | - | 0 W/m² | - |
| 1777602133 | 8.89° C | 71% | 1015.1 hPa | 0 mm | - | 0 W/m² | - |
| 1777601828 | 9.44° C | 71% | 1015.2 hPa | 0 mm | - | 0 W/m² | - |
| 1777601524 | 9.44° C | 68% | 1015.2 hPa | 0 mm | - | 0 W/m² | - |
| 1777601219 | 9.44° C | 68% | 1015.2 hPa | 0 mm | - | 0 W/m² | - |
| 1777600917 | 9.44° C | 68% | 1015.1 hPa | 0 mm | - | 0 W/m² | - |
| 1777600611 | 10° C | 70% | 1015.2 hPa | 0 mm | - | 0 W/m² | - |
| 1777600308 | 9.44° C | 66% | 1015 hPa | 0 mm | - | 0 W/m² | - |
| 1777600004 | 9.44° C | 68% | 1015 hPa | 0 mm | - | 0 W/m² | - |
| 1777599700 | 9.44° C | 69% | 1015 hPa | 0 mm | - | 0 W/m² | - |
| 1777599396 | 10° C | 69% | 1014.9 hPa | 0 mm | - | 0 W/m² | - |
| 1777599094 | 10° C | 68% | 1014.8 hPa | 0 mm | - | 0 W/m² | - |
| 1777598792 | 10.56° C | 65% | 1014.9 hPa | 0 mm | - | 0 W/m² | - |
| 1777598487 | 10.56° C | 64% | 1014.8 hPa | 0 mm | - | 0 W/m² | - |
| 1777598186 | 10.56° C | 65% | 1014.8 hPa | 0 mm | - | 0 W/m² | - |
| 1777597886 | 11.11° C | 62% | 1014.8 hPa | 0 mm | - | 0 W/m² | - |
| 1777597580 | 11.11° C | 60% | 1014.7 hPa | 0 mm | - | 0 W/m² | - |
| 1777597276 | 11.11° C | 59% | 1014.5 hPa | 0 mm | - | 0 W/m² | - |
| 1777596971 | 11.67° C | 59% | 1014.4 hPa | 0 mm | - | 0 W/m² | - |
| 1777596668 | 11.67° C | 59% | 1014.6 hPa | 0 mm | - | 0 W/m² | - |
| 1777596366 | 11.67° C | 59% | 1014.5 hPa | 0 mm | - | 0 W/m² | - |
| 1777596063 | 11.67° C | 59% | 1014.4 hPa | 0 mm | - | 1 W/m² | - |
| 1777595763 | 12.22° C | 58% | 1014.3 hPa | 0 mm | - | 1 W/m² | - |
| 1777595459 | 12.22° C | 57% | 1014.2 hPa | 0 mm | - | 2 W/m² | - |
| 1777595155 | 12.22° C | 57% | 1014.2 hPa | 0 mm | - | 5 W/m² | - |
* Rain latest hour (hover to see other rain measurements)
** Current wind speed in m/s (hover to see current wind gust speed)